Find Starlink 38253

NORAD ID: 100302 Int'l Des: 2026-184 Owner: SPXS Country: US Constellation: starlink operational

当前视图

正在加载3D地球...

About Starlink 38253

Starlink 38253 (NORAD 100302) is a starlink constellation satellite launched Aug 12, 2026 by SPXS of US. with a mass of 575.00 kg.

即将过境

Passes for default location (London). Set your location on the main map for personalized predictions.

高度历史

Loading altitude history...

两行轨道根数

1 A0302U 26184B 26255.26957629 .00011852 00000-0 32947-3 0 9997
2 A0302 97.2829 120.4236 0001580 76.6971 283.4449 15.37004734 6095
Epoch: Sep 12, 2026 • Age: 11 hours

当前状态

高度 467.5 km
远地点 / 近地点 N/A
速度 7.64 km/s
星下点 82.64°N, 142.51°E
发射日期 Aug 12, 2026
运行时间 31 days
类型 internet

技术详情

分类 Payload
质量 575.00 kg
干质量 530.00 kg
总质量 575.00 kg
长度 0.30 m
直径 4.10 m
跨度 29.00 m
形状 Box + pan
制造商 SPXS
平台类型 Starlink V2MO
阶段状态 In Orbit
所有者/国家 SPXS/US

Most Searched